Regional Weather Roundup
Issued by NWS

Home | Current Version | Previous Version | Text Only | Print | Product List | Glossary Off
Versions: 1 2 3 4 5 6 7 8 9 10 11 12 13 14 15 16 17 18 19 20 21 22 23 24 25 26 27 28 29 30 31 32 33 34 35 36 37 38 39 40 41 42 43 44 45 46 47 48 49 50

000
ASUS43 KIND 301209
RWRIN

WEATHER ROUNDUP FOR INDIANA
NATIONAL WEATHER SERVICE INDIANAPOLIS IN
800 AM EDT WED JUL 30 2014

NOTE: "FAIR" INDICATES FEW OR NO CLOUDS BELOW 12,000 FEET WITH NO
SIGNIFICANT WEATHER AND/OR OBSTRUCTIONS TO VISIBILITY.

* - STATION DOES NOT REPORT WEATHER SUCH AS PRECIPITATION OR FOG.

+ - STATION NOT QUALITY CONTROLLED BY THE NATIONAL WEATHER SERVICE.
    USE DATA WITH CAUTION...ESPECIALLY DEWPOINT AND RELATIVE
    HUMIDITY OBSERVATIONS.

INZ001>003-010>013-019-020-301300-
NORTHWEST INDIANA

CITY           SKY/WX    TMP DP  RH WIND       PRES   REMARKS
GARY /AIRPORT/ PTSUNNY   63  57  82 W6        30.04R
KNOX *+        MOSUNNY   56  54  94 CALM      30.02S
LA PORTE +     SUNNY     58  58 100 W3        30.03S FOG
6HR MIN TEMP:  52; 6HR MAX TEMP:  61;

MICHIGAN CITY+ MOSUNNY   55  55 100 CALM      30.03S FOG
MONTICELLO +   CLOUDY    60  58  95 W3        30.03S
RENSSELAER +   MOSUNNY   59  59 100 W3        30.04S FOG
VALPARAISO     SUNNY     60  57  89 W5        30.04R
6HR MIN TEMP:  57; 6HR MAX TEMP:  62;


$$

LMZ046-743>745-301300-
SOUTHERN LAKE MICHIGAN

STATION/POSITION TIME  TEMP WIND        PRES
                       AIR  DIR/SP/G
                 (UTC) (F)  (DEG/KT/KT) (MB)
MICHIGAN CITY    1200   65  260/  9/ 11   N/A

$$

INZ004-005-014>016-021>024-301300-
NORTH CENTRAL INDIANA

CITY           SKY/WX    TMP DP  RH WIND       PRES   REMARKS
ELKHART        SUNNY     57  57 100 CALM      30.02S FOG
GOSHEN         MOSUNNY   59  57  93 CALM      30.02S FOG
6HR MIN TEMP:  57; 6HR MAX TEMP:  63; 6HR PCP:  0.03;

LOGANSPORT +   PTSUNNY   57  55  94 CALM      30.05R FOG
PERU/GRISSOM   MOSUNNY   58  58 100 W3        30.03S
6HR MIN TEMP:  55; 6HR MAX TEMP:  58;

ROCHESTER +    SUNNY     59  59 100 CALM      30.04R FOG
SOUTH BEND     MOSUNNY   59  56  89 W3        30.04R
6HR MIN TEMP:  56; 6HR MAX TEMP:  62; 6HR PCP:  0.02;

WARSAW +       SUNNY     59  57  94 NW3       30.03S

$$

INZ006>009-017-018-025>027-301300-
NORTHEAST INDIANA

CITY           SKY/WX    TMP DP  RH WIND       PRES   REMARKS
ANGOLA *+      SUNNY     59  50  72 NW5       30.02S
AUBURN +       MOSUNNY   59  55  88 CALM      30.03S FOG
FORT WAYNE     PTSUNNY   60  58  92 W5        30.03R
6HR MIN TEMP:  57; 6HR MAX TEMP:  60;

HUNTINGTON +   MOSUNNY   59  58  96 W3        30.02S
6HR MIN TEMP:  56; 6HR MAX TEMP:  59;


$$

INZ028-029-035-036-043>045-051>053-301300-
WEST CENTRAL INDIANA

CITY           SKY/WX    TMP DP  RH WIND       PRES   REMARKS
GREENCASTLE +  SUNNY     57  55  94 CALM      30.07S
LAFAYETTE      SUNNY     59  59 100 CALM      30.04S
6HR MIN TEMP:  57; 6HR MAX TEMP:  59; 6HR PCP: TRACE;

TERRE HAUTE    SUNNY     59  56  89 CALM      30.07S
6HR MIN TEMP:  53; 6HR MAX TEMP:  61;


$$

INZ030>032-037>040-046>048-054>057-064-065-301300-
CENTRAL INDIANA

CITY           SKY/WX    TMP DP  RH WIND       PRES   REMARKS
CP ATTERBURY + SUNNY     59  57  94 SW5       30.07S
INDIANAPOLIS   MOSUNNY   59  57  93 W6        30.05R
6HR MIN TEMP:  57; 6HR MAX TEMP:  60;

-EAGLE CREEK   SUNNY     60  56  86 VRB3      30.05S
6HR MIN TEMP:  58; 6HR MAX TEMP:  60;

KOKOMO *+      SUNNY     61  55  82 W6        30.04S
MARION +       MOSUNNY   55  55  98 SW3       30.04S FOG
MT COMFORT *+  MOSUNNY   61 N/A N/A CALM      30.06S
SHELBYVILLE    SUNNY     60  58  92 S5        30.06R
6HR MIN TEMP:  58; 6HR MAX TEMP:  61;

ZIONSVILLE +   PTSUNNY   60  57  88 W3        30.06S
6HR MIN TEMP:  58; 6HR MAX TEMP:  60;


$$

INZ033-034-041-042-049-050-058-059-301300-
EAST CENTRAL INDIANA

CITY           SKY/WX    TMP DP  RH WIND       PRES   REMARKS
MUNCIE         SUNNY     61  57  87 W8        30.04S
6HR MIN TEMP:  59; 6HR MAX TEMP:  61;


$$

INZ060-061-067>069-081>083-085>088-301300-
SOUTHWEST INDIANA

CITY           SKY/WX    TMP DP  RH WIND       PRES   REMARKS
EVANSVILLE     SUNNY     63  56  78 W5        30.10R
6HR MIN TEMP:  60; 6HR MAX TEMP:  63;

WASHINGTON +   SUNNY     57  57 100 CALM      30.08S
6HR MIN TEMP:  55; 6HR MAX TEMP:  58;


$$

INZ062-063-066-070>080-084-089>092-301300-
SOUTH CENTRAL AND SOUTHEAST INDIANA

CITY           SKY/WX    TMP DP  RH WIND       PRES   REMARKS
BLOOMINGTON    SUNNY     61  56  83 CALM      30.08R
6HR MIN TEMP:  57; 6HR MAX TEMP:  61;

SEYMOUR +      SUNNY     55  50  82 CALM      30.07

$$




USA.gov is the U.S. government's official web portal to all federal, state and local government web resources and services.